Regional Weather Roundup
Issued by NWS

Home | Current Version | Previous Version | Text Only | Print | Product List | Glossary On
Versions: 1 2 3 4 5 6 7 8 9 10 11 12 13 14 15 16 17 18 19 20 21 22 23 24 25 26 27 28 29 30 31 32 33 34 35 36 37 38 39 40 41 42 43 44 45 46 47 48 49 50
000
ASUS43 KOAX 281502
RWRNE

WEATHER ROUNDUP FOR NEBRASKA
NATIONAL WEATHER SERVICE OMAHA NE
900 AM CST FRI NOV 28 2014

NOTES: SATELLITE DATA IS BEING USED TO AUGMENT CLOUD COVER ABOVE
       12000 FEET.
       "FAIR" INDICATES FEW OR NO CLOUDS BELOW 12,000 FEET WITH NO
       SIGNIFICANT WEATHER AND/OR OBSTRUCTIONS TO VISIBILITY.

  * THESE STATIONS DO NOT REPORT WEATHER SUCH AS RAIN...SNOW OR FOG.

NEZ001>004-019>022-054>056-281600-
NEBRASKA PANHANDLE

CITY           SKY/WX    TMP DP  RH WIND       PRES   REMARKS
SCOTTSBLUFF    PTCLDY    46  27  47 NW12      29.83R
ALLIANCE       PTCLDY    41  26  55 SW7       29.80F
CHADRON        CLOUDY   N/A N/A N/A SW8       29.77S
SIDNEY         PTCLDY    50  22  33 W15       29.88S
$$

NEZ057>060-069>072-079>082-281600-
SOUTHWEST NEBRASKA

CITY           SKY/WX    TMP DP  RH WIND       PRES   REMARKS
NORTH PLATTE   MOSUNNY   30  26  85 NW3       29.84F
IMPERIAL       MOSUNNY   37  24  59 W10       29.86F WCI  30
MCCOOK         SUNNY     33  24  69 W7        29.87F WCI  27
$$

NEZ005>010-023>029-035>040-094-281600-
NORTH CENTRAL NEBRASKA

CITY           SKY/WX    TMP DP  RH WIND       PRES   REMARKS
VALENTINE      CLEAR     36  29  75 SW8       29.71F WCI  30
BROKEN BOW     MOSUNNY   38  28  67 CALM      29.79F
ORD            PTSUNNY   22  18  85 CALM      29.79F
$$

NEZ041-046>049-061>064-073>077-083>087-281600-
SOUTH CENTRAL NEBRASKA

CITY           SKY/WX    TMP DP  RH WIND       PRES   REMARKS
GRAND ISLAND   MOSUNNY   35  25  66 SW6       29.82F WCI  30
HASTINGS       SUNNY     35  26  69 SW5       29.82F WCI  31
KEARNEY *      MOSUNNY   36  25  64 SW8       29.84F WCI  29
YORK           MOSUNNY   30  25  80 SW8       29.83S WCI  23
$$

NEZ011>018-030>034-042>045-281600-
NORTHEAST NEBRASKA

CITY           SKY/WX    TMP DP  RH WIND       PRES   REMARKS
NORFOLK        MOSUNNY   29  22  75 SW3       29.79S
COLUMBUS *     SUNNY     28  19  69 SW5       29.83F WCI  23
TEKAMAH        SUNNY     29  23  78 S8        29.86S WCI  21
$$

NEZ050>053-065>068-078-088>093-281600-
SOUTHEAST NEBRASKA

CITY           SKY/WX    TMP DP  RH WIND       PRES   REMARKS
LINCOLN        SUNNY     31  24  75 S5        29.88F WCI  26
OMAHA EPPLEY   MOSUNNY   31  24  75 S10       29.89F WCI  22
FALLS CITY     SUNNY     35  25  66 S15       29.91F WCI  25
$$

NEZ044-045-051>053-067-281600-
OMAHA AREA

CITY           SKY/WX    TMP DP  RH WIND       PRES   REMARKS
OMAHA EPPLEY   MOSUNNY   31  24  75 S10       29.89F WCI  22
OFFUTT AFB     SUNNY     31  24  78 SE6       29.88S WCI  25
$$


USA.gov is the U.S. government's official web portal to all federal, state and local government web resources and services.